Погода в Сорока

Россия / Республика Бурятия     52°19′24″N   100°10′27″E
темп.,
°C
ветер,
м/с
пор.,
м/с
влажн.,
%
обл.,
%
осадки,
мм/ч
давл.,
гПа
погр.,
м
29 января, сб
сб2923:00−33ююв2210095 0.0 105010
02:00−35ююв2210095 0.0 105210
05:00−36ююв2210087 0.0 105310
08:00−37ююв1110077 0.0 105410
11:00−29ю119873 0.0 104752
14:00−21зсз11875 0.0 1038174
17:00−22ссз11935 0.0 10389
20:00−31ююв129946 0.0 10489
30 января, вс
вс3023:00−35ююв229861 0.0 10539
02:00−36ююв229742 0.0 10559
05:00−37ююв229528 0.0 10569
08:00−38ююв229413 0.0 10589
11:00−29ююв11866 0.0 105053
14:00−22з11745 0.0 1041182
17:00−22ссз00865 0.0 10409
20:00−32ююв22945 0.0 10519
31 января, пн
пн3123:00−35ююв229639 0.0 105510
02:00−35ююв229574 0.0 105510
05:00−36ююв229323 0.0 10559
08:00−36ююв229258 0.0 105610
11:00−28ю11806 0.0 104857
14:00−20зсз11675 0.0 1039180
17:00−21ссз11835 0.0 10389
20:00−30ююв22905 0.0 10499
1 февраля, вт
вт123:00−33ююв229612 0.0 105410
02:00−34ююв229621 0.0 10549
05:00−35ююв22956 0.0 10559
08:00−35ююв22956 0.0 10569
11:00−26ю11845 0.0 104854
14:00−19зсз11745 0.0 1040178
17:00−19ссз11865 0.0 10399
20:00−28ююв11965 0.0 10499
2 февраля, ср
ср223:00−31ююв229910 0.0 105410
02:00−32ююв229823 0.0 105510
05:00−33ююв229712 0.0 105610
08:00−33ююв229728 0.0 105710
11:00−24ююв119110 0.0 104956
14:00−17зюз00785 0.0 1040166
17:00−17ссз00875 0.0 10389
20:00−27ююв22995 0.0 10489